Stündliche Wetter Labenschina

Heute, 16 Mai, Sonntag

Zeit Temperatur Niederschläge Wind Luftdruck Luftfeuchtigkeit
00:00 +10°C° 0 mm 2 m/S 733 mmHg 95%
01:00 +9°C° 0 mm 2 m/S 733 mmHg 95%
02:00 +9°C° 0 mm 2 m/S 733 mmHg 95%
03:00 +9°C° 0 mm 2 m/S 733 mmHg 95%
04:00 +9°C° 0 mm 2 m/S 733 mmHg 95%
05:00 +10°C° 0 mm 1 m/S 734 mmHg 95%
06:00 +10°C° 0 mm 2 m/S 734 mmHg 91%
07:00 +13°C° 0 mm 2 m/S 734 mmHg 87%
08:00 +14°C° 0 mm 2 m/S 735 mmHg 83%
09:00 +15°C° 0 mm 2 m/S 735 mmHg 77%
10:00 +16°C° 0 mm 3 m/S 735 mmHg 71%
11:00 +17°C° 0 mm 3 m/S 735 mmHg 65%
12:00 +18°C° 0 mm 3 m/S 735 mmHg 63%
13:00 +18°C° 0 mm 3 m/S 735 mmHg 61%
14:00 +19°C° 0 mm 3 m/S 734 mmHg 58%
15:00 +19°C° 0 mm 3 m/S 734 mmHg 60%
16:00 +19°C° 0 mm 3 m/S 734 mmHg 62%
17:00 +19°C° 0 mm 3 m/S 734 mmHg 64%
18:00 +18°C° 0 mm 3 m/S 734 mmHg 69%
19:00 +16°C° 0 mm 3 m/S 734 mmHg 74%
20:00 +14°C° 0 mm 3 m/S 733 mmHg 78%
21:00 +13°C° 0.1 mm 3 m/S 733 mmHg 81%
22:00 +13°C° 0.1 mm 3 m/S 733 mmHg 84%
23:00 +13°C° 0.1 mm 4 m/S 733 mmHg 86%

Morgen, 17 Mai, Montag

Zeit Temperatur Niederschläge Wind Luftdruck Luftfeuchtigkeit
00:00 +12°C° 0 mm 3 m/S 733 mmHg 89%
01:00 +12°C° 0 mm 3 m/S 733 mmHg 92%
02:00 +11°C° 0 mm 3 m/S 733 mmHg 95%
03:00 +12°C° 0 mm 3 m/S 732 mmHg 94%
04:00 +12°C° 0 mm 4 m/S 732 mmHg 94%
05:00 +12°C° 0 mm 4 m/S 732 mmHg 93%
06:00 +13°C° 0 mm 4 m/S 732 mmHg 90%
07:00 +14°C° 0 mm 4 m/S 732 mmHg 87%
08:00 +15°C° 0 mm 5 m/S 733 mmHg 84%
09:00 +16°C° 0.5 mm 5 m/S 732 mmHg 80%
10:00 +18°C° 0.5 mm 4 m/S 732 mmHg 76%
11:00 +19°C° 0.5 mm 4 m/S 732 mmHg 72%
12:00 +19°C° 0.9 mm 4 m/S 732 mmHg 74%
13:00 +18°C° 0.9 mm 4 m/S 732 mmHg 76%
14:00 +18°C° 0.9 mm 3 m/S 732 mmHg 78%
15:00 +17°C° 0.3 mm 3 m/S 731 mmHg 80%
16:00 +16°C° 0.3 mm 3 m/S 731 mmHg 82%
17:00 +16°C° 0.3 mm 3 m/S 731 mmHg 84%
18:00 +14°C° 0 mm 3 m/S 730 mmHg 88%
19:00 +14°C° 0 mm 2 m/S 730 mmHg 91%
20:00 +13°C° 0 mm 2 m/S 730 mmHg 95%
21:00 +13°C° 0 mm 2 m/S 729 mmHg 95%
22:00 +12°C° 0 mm 2 m/S 729 mmHg 94%
23:00 +12°C° 0 mm 2 m/S 728 mmHg 94%

übermorgen, 18 Mai, Dienstag

Zeit Temperatur Niederschläge Wind Luftdruck Luftfeuchtigkeit
00:00 +12°C° 0.1 mm 2 m/S 728 mmHg 95%
01:00 +11°C° 0.1 mm 3 m/S 727 mmHg 96%
02:00 +11°C° 0.1 mm 3 m/S 727 mmHg 96%
03:00 +11°C° 1.1 mm 3 m/S 726 mmHg 97%
04:00 +12°C° 1.1 mm 3 m/S 725 mmHg 98%
05:00 +12°C° 1.1 mm 3 m/S 725 mmHg 98%
06:00 +12°C° 1.1 mm 3 m/S 724 mmHg 98%
07:00 +12°C° 1.1 mm 3 m/S 724 mmHg 97%
08:00 +13°C° 1.1 mm 3 m/S 724 mmHg 97%
09:00 +13°C° 0 mm 3 m/S 724 mmHg 93%
10:00 +14°C° 0 mm 4 m/S 725 mmHg 89%
11:00 +14°C° 0 mm 4 m/S 725 mmHg 86%
12:00 +15°C° 0.1 mm 4 m/S 725 mmHg 83%
13:00 +15°C° 0.1 mm 4 m/S 725 mmHg 81%
14:00 +17°C° 0.1 mm 3 m/S 726 mmHg 79%
15:00 +16°C° 0.4 mm 3 m/S 726 mmHg 80%
16:00 +16°C° 0.4 mm 3 m/S 726 mmHg 82%
17:00 +16°C° 0.4 mm 3 m/S 726 mmHg 84%
18:00 +15°C° 0.3 mm 2 m/S 726 mmHg 87%
19:00 +14°C° 0.3 mm 2 m/S 727 mmHg 90%
20:00 +14°C° 0.3 mm 1 m/S 727 mmHg 93%
21:00 +13°C° 0.1 mm 2 m/S 727 mmHg 93%
22:00 +13°C° 0.1 mm 2 m/S 727 mmHg 94%
23:00 +11°C° 0.1 mm 3 m/S 728 mmHg 95%

19 Mai, Mittwoch

Zeit Temperatur Niederschläge Wind Luftdruck Luftfeuchtigkeit
00:00 +11°C° 0.3 mm 3 m/S 728 mmHg 95%
01:00 +10°C° 0.3 mm 3 m/S 728 mmHg 95%
02:00 +10°C° 0.3 mm 3 m/S 728 mmHg 95%
03:00 +10°C° 0.7 mm 4 m/S 728 mmHg 95%
04:00 +8°C° 0.7 mm 4 m/S 729 mmHg 96%
05:00 +8°C° 0.7 mm 5 m/S 729 mmHg 96%
06:00 +8°C° 1.3 mm 5 m/S 729 mmHg 96%
07:00 +7°C° 1.3 mm 5 m/S 730 mmHg 96%
08:00 +7°C° 1.3 mm 5 m/S 730 mmHg 95%
09:00 +7°C° 1.7 mm 5 m/S 730 mmHg 95%
10:00 +7°C° 1.7 mm 5 m/S 731 mmHg 95%
11:00 +7°C° 1.7 mm 6 m/S 731 mmHg 94%
12:00 +8°C° 2 mm 6 m/S 731 mmHg 94%
13:00 +8°C° 2 mm 6 m/S 731 mmHg 94%
14:00 +8°C° 2 mm 6 m/S 731 mmHg 94%
15:00 +8°C° 2.3 mm 6 m/S 731 mmHg 93%
16:00 +8°C° 2.3 mm 6 m/S 731 mmHg 92%
17:00 +8°C° 2.3 mm 6 m/S 731 mmHg 92%
18:00 +8°C° 1.3 mm 5 m/S 731 mmHg 92%
19:00 +8°C° 1.3 mm 5 m/S 731 mmHg 92%
20:00 +8°C° 1.3 mm 4 m/S 732 mmHg 93%
21:00 +8°C° 0.3 mm 4 m/S 731 mmHg 94%
22:00 +8°C° 0.3 mm 5 m/S 731 mmHg 95%
23:00 +8°C° 0.3 mm 5 m/S 731 mmHg 95%

20 Mai, Donnerstag

Zeit Temperatur Niederschläge Wind Luftdruck Luftfeuchtigkeit
00:00 +8°C° 0.4 mm 6 m/S 731 mmHg 96%
01:00 +8°C° 0.4 mm 6 m/S 731 mmHg 96%
02:00 +8°C° 0.4 mm 7 m/S 731 mmHg 96%
03:00 +8°C° 0.1 mm 6 m/S 732 mmHg 95%
04:00 +7°C° 0.1 mm 6 m/S 732 mmHg 94%
05:00 +5°C° 0.1 mm 6 m/S 732 mmHg 94%
06:00 +7°C° 0 mm 6 m/S 732 mmHg 91%
07:00 +7°C° 0 mm 6 m/S 732 mmHg 87%
08:00 +8°C° 0 mm 6 m/S 733 mmHg 84%
09:00 +9°C° 0 mm 6 m/S 733 mmHg 78%
10:00 +11°C° 0 mm 6 m/S 733 mmHg 72%
11:00 +13°C° 0 mm 6 m/S 734 mmHg 66%
12:00 +14°C° 0 mm 6 m/S 734 mmHg 62%
13:00 +15°C° 0 mm 5 m/S 734 mmHg 58%
14:00 +15°C° 0 mm 5 m/S 735 mmHg 55%
15:00 +15°C° 0 mm 5 m/S 735 mmHg 58%
16:00 +15°C° 0 mm 4 m/S 735 mmHg 61%
17:00 +15°C° 0 mm 4 m/S 735 mmHg 65%
18:00 +13°C° 0 mm 3 m/S 735 mmHg 70%
19:00 +12°C° 0 mm 3 m/S 736 mmHg 74%
20:00 +12°C° 0 mm 2 m/S 736 mmHg 79%
21:00 +10°C° 0 mm 2 m/S 736 mmHg 82%
22:00 +9°C° 0 mm 2 m/S 736 mmHg 85%
23:00 +8°C° 0 mm 2 m/S 737 mmHg 88%

21 Mai, Freitag

Zeit Temperatur Niederschläge Wind Luftdruck Luftfeuchtigkeit
00:00 +7°C° 0 mm 2 m/S 737 mmHg 89%
01:00 +7°C° 0 mm 2 m/S 737 mmHg 91%
02:00 +6°C° 0 mm 2 m/S 737 mmHg 93%
03:00 +6°C° 0 mm 2 m/S 737 mmHg 92%
04:00 +6°C° 0 mm 2 m/S 737 mmHg 91%
05:00 +6°C° 0 mm 1 m/S 737 mmHg 89%
06:00 +6°C° 0 mm 2 m/S 737 mmHg 82%
07:00 +8°C° 0 mm 3 m/S 737 mmHg 75%
08:00 +8°C° 0 mm 4 m/S 737 mmHg 68%
09:00 +10°C° 0 mm 4 m/S 736 mmHg 65%
10:00 +11°C° 0 mm 4 m/S 736 mmHg 63%
11:00 +12°C° 0 mm 4 m/S 736 mmHg 60%
12:00 +12°C° 0 mm 4 m/S 735 mmHg 59%
13:00 +12°C° 0 mm 4 m/S 735 mmHg 59%
14:00 +12°C° 0 mm 4 m/S 735 mmHg 58%
15:00 +13°C° 0 mm 4 m/S 734 mmHg 59%
16:00 +13°C° 0 mm 4 m/S 734 mmHg 59%
17:00 +13°C° 0 mm 4 m/S 733 mmHg 60%
18:00 +11°C° 0 mm 4 m/S 733 mmHg 67%
19:00 +9°C° 0 mm 3 m/S 734 mmHg 73%
20:00 +8°C° 0 mm 3 m/S 734 mmHg 80%
21:00 +7°C° 0 mm 3 m/S 734 mmHg 83%
22:00 +5°C° 0 mm 3 m/S 734 mmHg 85%
23:00 +5°C° 0 mm 3 m/S 734 mmHg 88%
Mehr zeigen

Wir brauchen deine Erlaubnis

Meteoprog und unser Service Anbieter werden persönliche Daten aufbewahren, so wie Cookies, Geräte Bezeichnung oder ähnliche Technologien von deinem Gerät und Prozess, so wie Persönliche Daten Inhalte und Werbungen, genauso wie social Media und den Verkehr zu analysieren.

  • Aufbewahrung und/oder Zugang zu deiner Geräte Informationen.

    Cookies, Geräte Bezeichnung oder andere Informationen, können aufbewahrt oder Zugang zu deinem Gerät erhalten, für den Grund, der oben angegeben wird.

  • Personalisierte Werbung und Inhalte, Messungen, Einblick in das Publikum und Produkt Entwicklung.

    Werbungen und Inhalte können personalisiert werden, basierend auf ein Profil. Mehr Daten können besser personalisierte Werbungen und Inhalte hinzufügen. Werbung und Inhalte können gezeigt und gemessen werden. Einblicke über das Publikum, welche die Werbung gesehen haben und den Inhalt, können abgeleitet werden. So wie Daten können genutzt werden, um es zu verbessern oder die Benutzer Erfahrung zu verbessern das System und die Software.

Wenn du “Ich stimme zu” klickst, erlaubst du uns, die Cookies zu benutzen die Geräte Bezeichnung, den Web oder ähnliche Technologien zu benutzen. Deine Settings, können in deinem Gerät bei deinem Browser geändert werden.

Für den bestimmten Zweck, berechtigten Interessen beruhen darauf, mehr als auf den Inhalt. Du kannst mehr darüber in unseren Privaten und Cookie Politik lesen.